Flag for U.S.A. Weather past 2 weeks in Tucson, Arizona, U.S.A.

Now
100 °F

Sunny.


Feels Like: 95 °F
Forecast: 72 / 99 °F
Wind: 2 mph from Southeast

Location: Davis-Monthan Air Force Base

Current Time: Aug 29, 2014 at 4:04:50 PM

Latest Report: Aug 29, 2014 at 2:55 PM


Visibility: 10 mi

Pressure: 29.68 "Hg

Humidity: 12%

Dew point: 39 °F

Location of TucsonLocation

Historic Weather in Tucson — Graph

°F

Tucson temperature yesterday

Maximum temperature yesterday: 96 °F (at 4:58 PM)
Minimum temperature yesterday: 71 °F (at 5:58 AM)
Average temperature yesterday: 85 °F

Past Weeks' High & Low Weather Summary

 TemperatureHumidityPressure
High100 °F (Aug 29, 2:55 PM)88% (Aug 20, 4:58 AM)30.07 "Hg (Aug 20, 4:58 AM)
Low68 °F (Aug 22, 5:58 AM)12% (Aug 29, 2:55 PM)29.68 "Hg (Aug 29, 2:55 PM)
Average81 °F54%29.87 "Hg
* Reported Aug 14 2:58 PM — Aug 29 2:55 PM, Tucson, Weather by CustomWeather, © 2014

Note: Actual official high and low records may vary slightly from our data, if they occured in-between our weather recording intervals... More about our weather records

Advertising

Tucson weather history for previous 24 hours

 ConditionsComfort  
Time TempWeatherWind HumidityBarometerVisibility
2:55 PM
Aug 29
100 °FSunny.2 mph12%29.68 "Hg10 mi
10:58 AM91 °FSunny.No wind21%29.79 "Hg10 mi
9:58 AM89 °FSunny.5 mph23%29.81 "Hg10 mi
8:58 AM85 °FSunny.5 mph28%29.81 "Hg10 mi
7:58 AM80 °FSunny.3 mph35%29.81 "Hg10 mi
6:58 AM72 °FSunny.9 mph46%29.82 "Hg10 mi
5:58 AM71 °FSunny.3 mph47%29.80 "Hg10 mi
4:58 AM72 °FClear.8 mph46%29.78 "Hg10 mi
3:58 AM73 °FClear.7 mph45%29.78 "Hg10 mi
2:58 AM73 °FClear.8 mph45%29.79 "Hg10 mi
1:58 AM74 °FClear.8 mph42%29.80 "Hg10 mi
12:58 AM77 °FClear.6 mph37%29.80 "Hg10 mi
11:58 PM
Aug 28
79 °FClear.5 mph33%29.80 "Hg10 mi
10:58 PM82 °FClear.5 mph30%29.80 "Hg10 mi
9:58 PM85 °FClear.6 mph29%29.81 "Hg10 mi
8:58 PM88 °FPassing clouds.7 mph26%29.81 "Hg10 mi
7:58 PM90 °FPassing clouds.7 mph23%29.80 "Hg10 mi
6:58 PM92 °FClear.9 mph22%29.78 "Hg10 mi
5:58 PM94 °FSunny.10 mph23%29.77 "Hg10 mi
4:58 PM96 °FSunny.9 mph22%29.76 "Hg10 mi
Weather by CustomWeather, © 2014

See weather overviewHow to use our weather pages